[[{"header":{"parameterUnit":"m.s-1","parameterCategory":1,"la1":30.2991,"la2":30.254,"lo1":-89.0895,"lo2":-89.0444,"dy":0.0017,"dx":0.0017,"nx":28,"ny":28,"refTime":"2025-07-05T09:00:00:Z","depth":0,"parameterNumber":2,"parameterNumberName":"U-component_of_WINDS"},"data":[0,0,0,0,0,0,0,0,0,0,0,0,0,0,0,0,0,0,0,0,0,0,0,0,0,0,0,0,0,0,0,0,0,0,0,0,0,0,0,0,0,0,0,0,0,0,0,0,0,0,0,0,0,0,0,0,0,0,0.326,0.326,0,0.3223,0.3222,0.3222,0.3216,0.3216,0.3216,0.3217,0.3175,0.3174,0.3173,0,0,0,0,0,0,0,0,0,0,0,0,0,0.3325,0.3324,0.326,0.326,0.3259,0.3223,0.3222,0.3222,0.3216,0.3216,0.3216,0.3217,0.3176,0.3174,0.3173,0,0,0,0,0,0,0,0,0,0,0,0,0,0.3293,0.3324,0.326,0.3252,0.3251,0.3223,0.3222,0.3222,0.3215,0.3216,0.3216,0.3217,0.3177,0.3174,0.3172,0.315,0,0,0.3166,0.3165,0,0,0,0,0,0,0,0,0.3295,0.3291,0.3254,0.3253,0.3251,0.3224,0.323,0.3197,0.3215,0.3229,0.3217,0.3217,0.3191,0.3188,0.318,0.3148,0.3146,0.3166,0.3165,0.3164,0.3163,0,0,0,0,0,0,0,0.3297,0.3292,0.3245,0.3253,0.3252,0.325,0.3246,0.3224,0.3208,0.3228,0.3227,0.3223,0.3191,0.3182,0.3179,0.3145,0.3166,0.3164,0.3163,0.3162,0.3093,0.3093,0,0,0,0,0,0,0.3301,0.3294,0.3247,0.3244,0.3275,0.3248,0.3244,0.3232,0.3208,0.3205,0.3223,0.3223,0.3185,0.3181,0.3177,0.3149,0.3164,0.3162,0.316,0.3094,0.3093,0.3093,0,0,0,0,0,0,0.3303,0.3297,0.3248,0.3269,0.3263,0.3246,0.3234,0.3231,0.3223,0.3204,0.3201,0.3217,0.3185,0.318,0.3157,0.3148,0.3161,0.3159,0.3095,0.3094,0.3093,0.3092,0,0,0,0,0,0,0.3305,0.3298,0.3289,0.3269,0.3262,0.3229,0.3233,0.323,0.3219,0.3219,0.3198,0.3194,0.3185,0.316,0.3155,0.3145,0.3157,0.3095,0.3094,0.3093,0.3093,0.3092,0.309,0,0,0,0,0,0.3307,0.329,0.3289,0.3283,0.3251,0.3228,0.3224,0.3215,0.3219,0.321,0.3198,0.3195,0.315,0.3158,0.3152,0.3141,0.3096,0.3094,0.3093,0.3094,0.3092,0.309,0,0,0,0,0,0,0.3308,0.3287,0.3285,0.3261,0.3247,0.3227,0.3216,0.3213,0.3196,0.3197,0.3185,0.318,0.3157,0.3147,0.3156,0.3118,0.3123,0.312,0.3125,0.3124,0.3122,0.3125,0.3155,0,0,0,0,0,0.3306,0.329,0.3272,0.3252,0.3245,0.3232,0.3222,0.3216,0.32,0.3193,0.318,0.3164,0.3146,0.3134,0.3117,0.3092,0.3087,0.3082,0.3081,0.308,0.3077,0.3063,0.3061,0.3088,0.3088,0.3088,0,0,0.33,0.3287,0.3277,0.3252,0.324,0.3224,0.3227,0.3209,0.3196,0.319,0.3168,0.3157,0.3139,0.3115,0.3103,0.3105,0.3069,0.3078,0.3077,0.3075,0.3062,0.3059,0.3057,0.3088,0.3088,0.3088,0,0,0.3281,0.327,0.3252,0.3241,0.3223,0.3214,0.321,0.3192,0.3185,0.3162,0.3158,0.3143,0.3112,0.3099,0.3088,0.3067,0.3063,0.3061,0.3054,0.304,0.3038,0.3036,0.3028,0.3025,0.3059,0.3059,0.3059,0,0.3276,0.3251,0.3244,0.3226,0.3215,0.3211,0.3193,0.3182,0.3159,0.3152,0.3155,0.3117,0.3104,0.3077,0.3072,0.3064,0.3058,0.3063,0.3039,0.3037,0.3035,0.3027,0.3024,0.3059,0.3059,0.3059,0.3059,0,0.3246,0.3229,0.3217,0.3197,0.3185,0.3167,0.3156,0.3145,0.3141,0.3132,0.3109,0.3094,0.3073,0.3067,0.3062,0.3039,0.3041,0.3042,0.3046,0.3033,0.3025,0.3022,0.3059,0.3059,0.3059,0.3059,0,0,0.3225,0.3202,0.3197,0.3188,0.3169,0.3155,0.3138,0.3119,0.311,0.3095,0.3079,0.3054,0.3055,0.3043,0.3037,0.3026,0.301,0.3028,0.3028,0.3025,0.2984,0.2983,0.2979,0.3008,0.3007,0.3007,0.2985,0,0.3204,0.3173,0.3166,0.3139,0.3124,0.312,0.3105,0.3091,0.3083,0.3068,0.3058,0.3041,0.3044,0.3036,0.3025,0.3014,0.3001,0.3016,0.2993,0.2992,0.2997,0.2975,0.2974,0.2954,0.2982,0.2982,0.2981,0,0.3174,0.316,0.3132,0.3116,0.3109,0.3095,0.3078,0.3064,0.3048,0.3043,0.3031,0.3026,0.3007,0.3014,0.2988,0.2998,0.2989,0.2982,0.2981,0.2978,0.2985,0.2971,0.2947,0.2944,0.2976,0.2977,0.2977,0,0.3161,0.3135,0.3115,0.3107,0.3088,0.3078,0.307,0.3055,0.3044,0.3029,0.3022,0.3005,0.2995,0.2981,0.2972,0.2978,0.2947,0.2953,0.2941,0.2942,0.2934,0.2934,0.2908,0.2929,0.2929,0.2929,0.2929,0,0.3137,0.312,0.3109,0.3096,0.3077,0.3069,0.305,0.3042,0.3029,0.3015,0.3011,0.2997,0.2986,0.2971,0.2964,0.2943,0.2939,0.2934,0.2932,0.2934,0.2934,0.2926,0.2927,0.2929,0.2929,0.2929,0.2929,0,0.3119,0.3111,0.3089,0.3073,0.3069,0.3055,0.3041,0.3029,0.3021,0.3003,0.2998,0.2986,0.2968,0.2958,0.2935,0.293,0.2907,0.2906,0.2913,0.2912,0.2901,0.2902,0.2867,0.2862,0.2888,0.2888,0.2888,0,0.3104,0.3091,0.3074,0.3065,0.3056,0.3041,0.3031,0.3023,0.3012,0.2995,0.2984,0.2967,0.2952,0.2924,0.2912,0.2895,0.2893,0.2882,0.289,0.2893,0.2892,0.2893,0.2891,0.288,0.288,0.288,0.288,0,0.3078,0.3075,0.306,0.3045,0.3033,0.302,0.3007,0.2999,0.299,0.2978,0.296,0.2949,0.2926,0.2909,0.2891,0.2881,0.2879,0.2878,0.2874,0.2875,0.2879,0.2877,0.2908,0.2878,0.2878,0.2879,0.2879,0.2879,0.306,0.3049,0.3035,0.302,0.301,0.2998,0.2986,0.2977,0.2963,0.2944,0.2941,0.2922,0.2908,0.2884,0.2874,0.2859,0.2861,0.2856,0.2854,0.2853,0.2853,0.2883,0.2856,0.2856,0.2856,0.2856,0.2856,0,0.3033,0.3025,0.3011,0.2994,0.2982,0.2982,0.2968,0.2957,0.2941,0.2929,0.2915,0.2895,0.2878,0.2866,0.2849,0.2839,0.2837,0.2835,0.2835,0.2833,0.2852,0.2857,0.2836,0.2836,0.2836,0.2836,0.2836,0.2836,0.3018,0.2999,0.2994,0.297,0.2962,0.2944,0.2936,0.2925,0.2915,0.2893,0.288,0.2873,0.286,0.2842,0.2827,0.2824,0.2817,0.2815,0.2811,0.2829,0.2831,0.2833,0.2837,0.2813,0.2813,0.2793,0.2793,0.2793]},{"header":{"parameterUnit":"m.s-1","parameterCategory":1,"la1":30.2991,"la2":30.254,"lo1":-89.0895,"lo2":-89.0444,"dy":0.0017,"dx":0.0017,"nx":28,"ny":28,"refTime":"2025-07-05T09:00:00:Z","depth":0,"parameterNumber":3,"parameterNumberName":"V-component_of_WINDS"},"data":[0,0,0,0,0,0,0,0,0,0,0,0,0,0,0,0,0,0,0,0,0,0,0,0,0,0,0,0,0,0,0,0,0,0,0,0,0,0,0,0,0,0,0,0,0,0,0,0,0,0,0,0,0,0,0,0,0,0,-3.8076,-3.8077,0,-3.8188,-3.8189,-3.819,-3.8148,-3.8146,-3.8143,-3.8141,-3.8252,-3.8257,-3.8263,0,0,0,0,0,0,0,0,0,0,0,0,0,-3.7824,-3.7829,-3.8076,-3.8078,-3.8079,-3.8188,-3.8189,-3.8191,-3.8149,-3.8146,-3.8143,-3.814,-3.8251,-3.8257,-3.8263,0,0,0,0,0,0,0,0,0,0,0,0,0,-3.7935,-3.7831,-3.8076,-3.8071,-3.8072,-3.8187,-3.8189,-3.8191,-3.8149,-3.8146,-3.8142,-3.8138,-3.8248,-3.8256,-3.8264,-3.839,0,0,-3.8289,-3.8292,0,0,0,0,0,0,0,0,-3.7928,-3.7944,-3.8071,-3.8072,-3.8073,-3.815,-3.8141,-3.8258,-3.815,-3.812,-3.8141,-3.8136,-3.8221,-3.8231,-3.826,-3.8395,-3.84,-3.8289,-3.8294,-3.8298,-3.83,0,0,0,0,0,0,0,-3.7921,-3.7939,-3.812,-3.8072,-3.8074,-3.8063,-3.8074,-3.8163,-3.8191,-3.8122,-3.812,-3.8134,-3.8221,-3.8253,-3.8263,-3.8402,-3.8289,-3.8296,-3.8301,-3.8304,-3.8646,-3.865,0,0,0,0,0,0,-3.7913,-3.7933,-3.8117,-3.8124,-3.799,-3.807,-3.8083,-3.8129,-3.8189,-3.8195,-3.8137,-3.8131,-3.8241,-3.8253,-3.8267,-3.8419,-3.8297,-3.8305,-3.831,-3.8642,-3.8647,-3.8652,0,0,0,0,0,0,-3.7908,-3.793,-3.8112,-3.8028,-3.805,-3.8079,-3.8131,-3.8133,-3.8165,-3.82,-3.8205,-3.8164,-3.8239,-3.8255,-3.836,-3.8422,-3.8309,-3.8316,-3.8637,-3.8643,-3.8649,-3.8724,0,0,0,0,0,0,-3.7901,-3.7928,-3.7977,-3.8029,-3.8055,-3.8205,-3.8135,-3.8138,-3.818,-3.8173,-3.8227,-3.8233,-3.8237,-3.8348,-3.8368,-3.8431,-3.8322,-3.8631,-3.864,-3.8647,-3.8716,-3.8732,-3.8746,0,0,0,0,0,-3.7892,-3.7992,-3.798,-3.8002,-3.8116,-3.8208,-3.8223,-3.8227,-3.8185,-3.8234,-3.8256,-3.8231,-3.8412,-3.8359,-3.8381,-3.8448,-3.8627,-3.8637,-3.8647,-3.8709,-3.8729,-3.8745,0,0,0,0,0,0,-3.7946,-3.7999,-3.7985,-3.8106,-3.8153,-3.8201,-3.8263,-3.8247,-3.8306,-3.8298,-3.8299,-3.8311,-3.842,-3.8444,-3.8384,-3.8573,-3.8513,-3.8528,-3.8553,-3.8572,-3.8587,-3.8579,-3.8329,0,0,0,0,0,-3.7972,-3.8043,-3.8085,-3.8188,-3.8212,-3.8234,-3.8274,-3.8273,-3.8321,-3.8341,-3.8371,-3.8418,-3.8486,-3.853,-3.8594,-3.8719,-3.8731,-3.8775,-3.879,-3.8802,-3.8815,-3.8884,-3.8904,-3.8683,-3.8683,-3.8683,0,0,-3.8026,-3.8064,-3.8109,-3.82,-3.8236,-3.8309,-3.8251,-3.833,-3.8385,-3.8352,-3.8454,-3.8478,-3.8531,-3.8646,-3.8699,-3.867,-3.8879,-3.8815,-3.8824,-3.883,-3.8896,-3.8917,-3.8935,-3.869,-3.8689,-3.8688,0,0,-3.8162,-3.8198,-3.8288,-3.8326,-3.8382,-3.8396,-3.8418,-3.8469,-3.8484,-3.8586,-3.8564,-3.8628,-3.8744,-3.8783,-3.8818,-3.897,-3.895,-3.8991,-3.9069,-3.9136,-3.9153,-3.9169,-3.9224,-3.9244,-3.9003,-3.9003,-3.9004,0,-3.8222,-3.8333,-3.8336,-3.8418,-3.8459,-3.8434,-3.8525,-3.8562,-3.8636,-3.8664,-3.8631,-3.8777,-3.8811,-3.8936,-3.8973,-3.9002,-3.9027,-3.8985,-3.9151,-3.9166,-3.9181,-3.9233,-3.9254,-3.9008,-3.9008,-3.9007,-3.9007,0,-3.8404,-3.8481,-3.8547,-3.8621,-3.8669,-3.8755,-3.877,-3.8819,-3.8813,-3.8831,-3.8935,-3.8975,-3.9047,-3.9076,-3.9071,-3.9201,-3.9182,-3.915,-3.909,-3.9207,-3.9256,-3.9276,-3.9015,-3.9013,-3.9012,-3.9011,0,0,-3.8577,-3.8653,-3.8677,-3.8711,-3.8771,-3.8831,-3.8916,-3.8988,-3.9029,-3.9081,-3.9153,-3.9252,-3.9223,-3.9263,-3.9262,-3.9321,-3.9441,-3.9282,-3.9283,-3.9311,-3.9587,-3.9612,-3.9635,-3.9427,-3.9431,-3.9434,-3.9583,0,-3.8719,-3.887,-3.8875,-3.9013,-3.9084,-3.9062,-3.9136,-3.9181,-3.92,-3.9263,-3.9282,-3.9354,-3.931,-3.9334,-3.9391,-3.9414,-3.9496,-3.9403,-3.9494,-3.9497,-3.9482,-3.9661,-3.9686,-3.9825,-3.9602,-3.9606,-3.9608,0,-3.8905,-3.8965,-3.911,-3.9162,-3.9192,-3.9258,-3.9325,-3.9386,-3.9436,-3.9446,-3.9491,-3.9482,-3.9569,-3.9506,-3.9625,-3.9562,-3.9599,-3.9616,-3.9621,-3.963,-3.956,-3.9675,-3.9869,-3.989,-3.9638,-3.9636,-3.9634,0,-3.9018,-3.9134,-3.9236,-3.9266,-3.9328,-3.9376,-3.9404,-3.9451,-3.9495,-3.9553,-3.9581,-3.9648,-3.9684,-3.9736,-3.9745,-3.9699,-3.9866,-3.9803,-3.9876,-3.9876,-3.9912,-3.991,-4.0116,-3.9935,-3.9935,-3.9934,-3.9934,0,-3.9176,-3.9266,-3.9288,-3.9351,-3.9451,-3.9456,-3.9555,-3.9579,-3.9621,-3.9688,-3.9673,-3.9735,-3.9743,-3.9808,-3.9816,-3.9914,-3.9931,-3.994,-3.9942,-3.9943,-3.9942,-3.9967,-3.9958,-3.994,-3.9939,-3.9938,-3.9937,0,-3.9319,-3.9338,-3.9448,-3.9499,-3.9514,-3.9585,-3.9628,-3.9689,-3.9706,-3.9791,-3.9811,-3.9837,-3.9913,-3.9928,-4.0016,-4.0021,-4.0139,-4.013,-4.0123,-4.0122,-4.0194,-4.0187,-4.0424,-4.0456,-4.0254,-4.0256,-4.0257,0,-3.942,-3.9488,-3.9547,-3.9592,-3.9623,-3.9694,-3.9739,-3.9746,-3.9793,-3.9857,-3.991,-3.9984,-4.0044,-4.0166,-4.0193,-4.0261,-4.0254,-4.0332,-4.0264,-4.0263,-4.0256,-4.0253,-4.026,-4.0346,-4.0348,-4.035,-4.0351,0,-3.9596,-3.9602,-3.9667,-3.9737,-3.9791,-3.9845,-3.9897,-3.9934,-3.9948,-4.0002,-4.008,-4.0127,-4.0219,-4.0293,-4.0361,-4.0389,-4.0373,-4.0372,-4.0393,-4.0395,-4.0388,-4.0394,-4.0159,-4.0367,-4.0365,-4.0364,-4.0363,-4.0363,-3.9721,-3.9782,-3.9833,-3.9907,-3.9947,-3.9996,-4.0056,-4.0081,-4.0147,-4.0223,-4.0223,-4.0309,-4.0358,-4.0449,-4.0481,-4.0548,-4.0523,-4.0553,-4.056,-4.0568,-4.0575,-4.0377,-4.056,-4.056,-4.0559,-4.0559,-4.0559,0,-3.9897,-3.993,-3.9998,-4.0071,-4.013,-4.011,-4.0167,-4.0216,-4.0293,-4.0341,-4.0401,-4.0491,-4.0563,-4.0596,-4.0667,-4.0714,-4.0709,-4.0733,-4.073,-4.0737,-4.0593,-4.0568,-4.0736,-4.0736,-4.0736,-4.0736,-4.0736,-4.0736,-3.9996,-4.0098,-4.011,-4.0232,-4.0263,-4.0349,-4.0383,-4.0428,-4.0467,-4.0569,-4.0629,-4.0651,-4.0693,-4.0767,-4.0833,-4.084,-4.0867,-4.0895,-4.09,-4.0765,-4.0747,-4.073,-4.0707,-4.0901,-4.0901,-4.1038,-4.104,-4.1041]}]]